| time (UTC) | temp F | wind direction | speed MPH | gust MPH | rain 1hr in | rain 24hr in | rain mn in | humidity % | barometer mb |
| 20260505041553 | 40 | 304 | 8.0 | 18.0 | 0.00 | 0.00 | 0.00 | 61 | 1000.3 |
| 20260505040054 | 40 | 302 | 8.0 | 19.0 | 0.00 | 0.00 | 0.00 | 59 | 1000.3 |
| 20260505034545 | 41 | 289 | 9.0 | 17.0 | 0.00 | 0.00 | 0.00 | 57 | 1000.3 |
| 20260505033048 | 41 | 325 | 8.0 | 20.0 | 0.00 | 0.00 | 0.00 | 59 | 1000.1 |
| 20260505031547 | 41 | 326 | 13.0 | 24.0 | 0.00 | 0.00 | 0.00 | 57 | 1000.1 |
| 20260505030045 | 42 | 340 | 14.0 | 26.0 | 0.00 | 0.00 | 0.00 | 58 | 1000.0 |
| 20260505024549 | 42 | 302 | 14.0 | 27.0 | 0.00 | 0.00 | 0.00 | 59 | 999.7 |
| 20260505023051 | 42 | 294 | 12.0 | 23.0 | 0.00 | 0.00 | 0.00 | 63 | 999.7 |
| 20260505021547 | 43 | 322 | 11.0 | 18.0 | 0.00 | 0.00 | 0.00 | 61 | 999.6 |
| 20260505020044 | 43 | 309 | 10.0 | 21.0 | 0.00 | 0.00 | 0.00 | 61 | 999.4 |
| 20260505014602 | 43 | 301 | 9.0 | 25.0 | 0.00 | 0.00 | 0.00 | 59 | 999.2 |
| 20260505013050 | 44 | 315 | 16.0 | 27.0 | 0.00 | 0.00 | 0.00 | 61 | 998.9 |
| 20260505011547 | 45 | 282 | 9.0 | 21.0 | 0.00 | 0.00 | 0.00 | 58 | 998.6 |
| 20260505010046 | 45 | 297 | 14.0 | 23.0 | 0.00 | 0.00 | 0.00 | 60 | 998.3 |
| 20260505004546 | 46 | 294 | 11.0 | 19.0 | 0.00 | 0.00 | 0.00 | 54 | 998.0 |
| 20260505003047 | 47 | 332 | 9.0 | 22.0 | 0.00 | 0.00 | 0.00 | 53 | 997.7 |
| 20260505001601 | 47 | 306 | 10.0 | 20.0 | 0.00 | 0.00 | 0.00 | 51 | 997.5 |
| 20260505000104 | 48 | 309 | 13.0 | 25.0 | 0.00 | 0.00 | 0.00 | 53 | 997.4 |
| 20260504234604 | 48 | 317 | 15.0 | 24.0 | 0.00 | 0.00 | 0.00 | 54 | 997.3 |
| 20260504233050 | 48 | 319 | 14.0 | 25.0 | 0.00 | 0.00 | 0.00 | 51 | 997.1 |
| 20260504231542 | 49 | 309 | 12.0 | 22.0 | 0.00 | 0.00 | 0.00 | 50 | 996.9 |
| 20260504230049 | 50 | 310 | 14.0 | 26.0 | 0.00 | 0.00 | 0.00 | 48 | 996.7 |
| 20260504224603 | 51 | 321 | 13.0 | 27.0 | 0.00 | 0.00 | 0.00 | 49 | 996.4 |
| 20260504223047 | 52 | 290 | 11.0 | 24.0 | 0.00 | 0.00 | 0.00 | 48 | 996.1 |
| 20260504221545 | 53 | 309 | 14.0 | 27.0 | 0.00 | 0.00 | 0.00 | 46 | 995.8 |
| 20260504220044 | 54 | 329 | 16.0 | 27.0 | 0.00 | 0.00 | 0.00 | 49 | 995.5 |
| 20260504214547 | 56 | 289 | 16.0 | 28.0 | 0.00 | 0.00 | 0.00 | 47 | 995.1 |
| 20260504213055 | 56 | 304 | 10.0 | 24.0 | 0.00 | 0.00 | 0.00 | 42 | 994.6 |
| 20260504211546 | 56 | 291 | 14.0 | 22.0 | 0.00 | 0.00 | 0.00 | 46 | 994.5 |
| 20260504210049 | 57 | 300 | 9.0 | 25.0 | 0.00 | 0.00 | 0.00 | 41 | 994.3 |
| 20260504204545 | 58 | 314 | 15.0 | 27.0 | 0.00 | 0.00 | 0.00 | 46 | 994.0 |
| 20260504203049 | 58 | 280 | 15.0 | 23.0 | 0.00 | 0.00 | 0.00 | 46 | 993.9 |
| 20260504201546 | 57 | 271 | 14.0 | 23.0 | 0.00 | 0.00 | 0.00 | 44 | 993.7 |
| 20260504200050 | 56 | 312 | 9.0 | 21.0 | 0.00 | 0.00 | 0.00 | 43 | 993.6 |
| 20260504194557 | 57 | 294 | 14.0 | 26.0 | 0.00 | 0.00 | 0.00 | 47 | 993.3 |
| 20260504193112 | 58 | 325 | 11.0 | 20.0 | 0.00 | 0.00 | 0.00 | 46 | 993.1 |
| 20260504191543 | 57 | 292 | 14.0 | 23.0 | 0.00 | 0.00 | 0.00 | 48 | 993.4 |
| 20260504190105 | 57 | 315 | 14.0 | 22.0 | 0.00 | 0.00 | 0.00 | 47 | 993.2 |
| 20260504184556 | 59 | 288 | 13.0 | 23.0 | 0.00 | 0.00 | 0.00 | 45 | 993.2 |
| 20260504183045 | 58 | 250 | 13.0 | 24.0 | 0.00 | 0.00 | 0.00 | 50 | 993.0 |
| 20260504181555 | 57 | 287 | 14.0 | 23.0 | 0.00 | 0.00 | 0.00 | 52 | 992.9 |
| 20260504180055 | 56 | 284 | 15.0 | 23.0 | 0.00 | 0.00 | 0.00 | 51 | 992.8 |
| 20260504174550 | 56 | 307 | 16.0 | 23.0 | 0.00 | 0.00 | 0.00 | 52 | 992.7 |
| 20260504173051 | 56 | 267 | 15.0 | 24.0 | 0.00 | 0.00 | 0.00 | 52 | 992.5 |
| 20260504171545 | 56 | 251 | 10.0 | 22.0 | 0.00 | 0.00 | 0.00 | 55 | 992.6 |
| 20260504110117 | 52 | 211 | 12.0 | 22.0 | 0.00 | 0.00 | 0.00 | 56 | 991.5 |
| 20260504081546 | 51 | 192 | 7.0 | 12.0 | 0.00 | 0.00 | 0.00 | 58 | 995.0 |
| 20260504044558 | 41 | 0 | 0.0 | 2.0 | 0.00 | 0.00 | 0.00 | 70 | 999.2 |